Regional Weather Roundup
Issued by NWS Newport/Morehead, NC

Current Version | Previous Version | Text Only | Print | Product List | Glossary On
Versions: 1 2 3 4 5 6 7 8 9 10 11 12 13 14 15 16 17 18 19 20 21 22 23 24 25 26 27 28 29 30 31 32 33 34 35 36 37 38 39 40 41 42 43 44 45 46 47 48 49 50
000
ASUS42 KMHX 171822
RWRMHX
WEATHER ROUNDUP FOR EASTERN NORTH CAROLINA
NATIONAL WEATHER SERVICE NEWPORT/MOREHEAD CITY NC
200 PM EDT THU APR 17 2014

NOTE: "FAIR" INDICATES FEW OR NO CLOUDS BELOW 12,000 FEET
WITH NO SIGNIFICANT WEATHER AND/OR OBSTRUCTIONS TO VISIBILITY

NCZ015>017-031-032-045>047-102-103-171900-
NORTH COAST

CITY           SKY/WX    TMP DP  RH WIND       PRES   REMARKS
EDENTON        MOSUNNY   58  43  57 NE8G18    30.52F
ELIZABETH CITY MOSUNNY   55  41  59 NE20G26   30.54F
KITTY HAWK     CLOUDY    52  41  66 NE10G22   30.51F
MANTEO         PTSUNNY   53  41  65 NE23G29   30.51F

$$

NCZ045>047-081-094-103-104-171900-
CENTRAL COAST

CITY           SKY/WX    TMP DP  RH WIND       PRES   REMARKS
FRISCO         CLOUDY    55  46  71 N16G32    30.47S
SWANQUARTER    NOT AVBL

$$

NCZ095-097-098-100-101-171900-
SOUTHERN COAST

CITY           SKY/WX    TMP DP  RH WIND       PRES   REMARKS
BEAUFORT       PTSUNNY   63  46  54 NE17G29   30.45F
CEDAR ISLAND   NOT AVBL
JACKSONVILLE   MOSUNNY   64  44  48 NE15      30.45F
NEWPORT        NOT AVBL
PINEY ISLAND   PTCLDY    60  47  61 N17G28    30.47F
WILMINGTON     PTSUNNY   66  44  45 NE8       30.44F


$$

NCZ011>013-027>030-043-044-078>080-089-090>093-098-171900-
COASTAL PLAIN

CITY           SKY/WX    TMP DP  RH WIND       PRES   REMARKS
AHOSKIE        MOSUNNY   57  40  53 N10       30.53F
CLINTON        SUNNY     61  44  54 NE6       30.49S
ELIZABETHTOWN  MOSUNNY   63  43  48 E3        30.46F
GOLDSBORO      MOSUNNY   61  43  51 N8        30.47F
GREENVILLE     MOSUNNY   61  41  48 NE9G17    30.50F
HAVELOCK       PTSUNNY   63  45  51 NE17G25   30.47F
KENANSVILLE    SUNNY     60  42  51 NE7       30.49S
KINSTON        MOSUNNY   63  43  48 NE9G18    30.49F
NEW BERN       PTSUNNY   63  46  54 N12       30.48F
RICHLANDS      MOSUNNY   64  45  48 N16       30.47F
ROANOKE RAPIDS NOT AVBL
ROCKY MOUNT      N/A    N/A N/A N/A MISG      30.51F
WASHINGTON     MOSUNNY   63  44  50 NE12G21   30.50F
WHITEVILLE     MOSUNNY   63  44  48 NE8       30.44F

$$

AMZ130-135-150-152-154-156-158-170-250-252-270-ANZ085-086-088-633-658-670-171900-
MARINE OBSERVATIONS

STATION/POSITION TIME  TEMP    WIND        PRES    WAVE   SWELL
                       AIR SEA DIR/SP/G            HT/PER HT/PER
                 (UTC) (F)     (DEG/KT/KT) (MB)    (FT/S) (FT/S)
CHESAPEAKE LIGHT 1800   45      40/ 27/ 29 1034.9
BUOY 44014       1800   51 53   30/ 25/ 33 1032.7   10/11   5/11
DUCK             1800   47 50   30/ 25/ 30 1032.8
2E DUCK          1800      49                N/A     7/ 7   2/11
OREGON INLET     1800   50 50  360/ 18/ 24 1032.6
BUOY 44095       1800      49                N/A    10/10   3/11
HATTERAS CG      1800   52 55   10/ 27/ 33 1031.7
DIAMOND BUOY     NOT AVBL
CAPE LOOKOUT     1800   58      10/ 19/ 24 1031.0
BEAUFORT LAB     1800   58 58   10/ 15/ 22 1030.6
30 SE NEW RIVER  1800   58 63   30/ 23/ 27 1030.5    7/ 8   3/ 9
5 SE WRIGHTSVILL 1800   59 60   50/ 14/ 17 1030.8
FRYING PAN BUOY  1800   59 63   50/ 21/ 27 1029.5    8/ 7   3/10
BUOY 41001       NOT AVBL
BUOY 41002       NOT AVBL
BUOY 41004       NOT AVBL

$$



USA.gov is the U.S. government's official web portal to all federal, state and local government web resources and services.